Regional Weather Roundup
Issued by NWS State College, PA

Home | Current Version | Previous Version | Text Only | Print | Product List | Glossary On
Versions: 1 2 3 4 5 6 7 8 9 10 11 12 13 14 15 16 17 18 19 20 21 22 23 24 25 26 27 28 29 30 31 32 33 34 35 36 37 38 39 40 41 42 43 44 45 46 47 48 49 50
000
ASUS41 KCTP 041410
RWRCTP

REGIONAL WEATHER ROUNDUP
NATIONAL WEATHER SERVICE STATE COLLEGE PA
900 AM EST SUN DEC 04 2016

Note: "fair" indicates few or no clouds below 12,000 feet with no
significant weather and/or obstructions to visibility.

* = STATION THAT DOES NOT REPORT PRECIPITATION /E.G. RAIN...SNOW...ETC/
    THUNDER OR FOG.

PAZ002>004-007>009-013>016-020>023-029>032-041500-
WESTERN PENNSYLVANIA

CITY           SKY/WX    TMP DP  RH WIND       PRES   REMARKS
ERIE           CLOUDY    36  30  79 S6        30.25R
MEADVILLE      CLOUDY    34  29  82 CALM      30.22S
FRANKLIN*        N/A     32  27  80 CALM      30.23F
NEW CASTLE     FAIR      31  30  96 CALM      30.26R
BEAVER COUNTY  NOT AVBL
BUTLER*        CLOUDY    34  27  75 S3        30.26R
PITTSBURGH INT CLOUDY    34  28  79 CALM      30.23R
PITTSBURGH     CLOUDY    34  25  69 CALM      30.23S
INDIANA*       CLOUDY    34  28  80 CALM      30.26R
LATROBE        SUNNY     32  30  93 CALM      30.25S
WASHINGTON CO* CLOUDY    30  27  86 CALM      30.24R
$$

PAZ004>006-010>012-017>019-024>028-033>037-041-042-045-046-049>053-041500-
CENTRAL PENNSYLVANIA

CITY           SKY/WX    TMP DP  RH WIND       PRES   REMARKS
BRADFORD       CLOUDY    32  30  92 CALM      30.20R
DUBOIS         CLOUDY    33  30  88 CALM      30.20S FOG
CLEARFIELD     CLOUDY    35  32  88 CALM      30.23R
JOHNSTOWN      MOSUNNY   30  26  85 S3        30.17F
ALTOONA        PTSUNNY   35  29  78 S3        30.22F
STATE COLLEGE  CLOUDY    36  32  87 CALM      30.23S
WILLIAMSPORT   CLOUDY    41  24  51 NW5       30.25R
SELINSGROVE    CLOUDY    41  29  62 N6        30.26S
FT INDIANTOWN  CLOUDY    41  25  53 NW6       30.25S
CAPITAL CITY   CLOUDY    43  26  51 NW8       30.26S
HARRISBURG     CLOUDY    42  32  67 W5        30.25S
YORK           CLOUDY    38  32  79 VRB3      30.26S
$$

PAZ038>040-043-044-047-048-054-055-060>062-067>071-041500-
EASTERN PENNSYLVANIA

CITY           SKY/WX    TMP DP  RH WIND       PRES   REMARKS
SCRANTON       SUNNY     37  24  59 N6        30.23R
MOUNT POCONO   MOSUNNY   32  21  64 NW12G20   30.17R
ALLENTOWN      MOSUNNY   42  25  50 N9        30.24R
QUAKERTOWN*    SUNNY     41  27  56 W6        30.24S
READING        PTSUNNY   43  26  51 N8        30.25R
LANCASTER      CLOUDY    42  31  64 NW5       30.25S
COATESVILLE      N/A     41  27  56 NW7       30.25F
POTTSTOWN      SUNNY     42  24  49 NW7       30.26S
BLUE BELL      PTSUNNY   41  28  60 W5        30.24S
DOYLESTOWN     SUNNY     44  26  49 VRB5      30.23R
WILLOW GROVE   NOT AVBL
NORTH PHILA    SUNNY     44  26  49 NW5       30.27R
PHILADELPHIA   PTSUNNY   43  25  49 NW3       30.26S
$$




USA.gov is the U.S. government's official web portal to all federal, state and local government web resources and services.